Temperature
15 15 15 14 14 14 14 13 13 13 13 14 15 15 15 15 16 16 16 16 16 16 16 15 15 15 15 15 15 15 15 15 15 15 16 16 16 16
15 15 14 14 14 14 14 14 13 13 13 14 14 14 14 14 15 15 15 15 15 15 15 15 15 15 15 15 15 15 15 15 15 15 15 15 15 15
14 14 14 14 14 14 14 14 13 13 13 13 13 13 13 14 13 14 14 14 14 14 14 14 14 14 14 14 14 14 14 14 14 14 14 14 15 15
14 14 14 14 14 14 14 14 14 13 13 13 13 13 13 13 13 13 13 13 13 13 13 13 13 13 13 13 13 13 13 13 13 13 14 14 14 14
13 13 13 13 14 14 14 14 14 14 13 13 13 13 13 13 12 12 12 12 12 12 12 12 12 13 13 13 13 13 13 13 13 13 13 13 13 13
13 13 13 13 13 13 14 14 14 13 13 13 13 13 12 12 12 12 11 11 12 12 12 12 12 12 12 12 12 12 12 12 12 12 12 12 13 13
12 12 13 13 13 13 13 14 14 13 13 13 13 12 12 12 12 11 11 11 11 11 11 11 11 11 11 11 11 11 11 12 12 12 12 12 12 12
11 12 12 13 13 13 13 14 13 13 13 13 13 12 12 12 12 11 11 11 10 10 11 11 11 11 11 11 11 11 11 11 11 11 11 11 11 11
10 11 12 12 13 13 13 13 13 13 13 13 13 13 12 12 12 11 11 11 11 10 11 10 10 10 10 10 10 9 9 9 9 9 9 9 9 9
10 10 11 12 12 12 13 13 13 13 12 12 13 13 13 12 12 12 11 11 11 10 10 10 9 9 9 9 9 8 8 8 8 8 8 8 8 8
9 10 10 11 11 12 12 12 12 12 12 12 12 12 12 11 11 11 11 11 10 9 10 10 9 9 9 8 8 8 8 7 7 7 7 7 7 7
9 9 10 10 11 11 12 12 12 11 11 11 11 11 11 11 11 11 11 11 10 9 9 10 9 9 8 8 8 8 8 7 7 7 7 7 7 7
9 9 9 10 10 11 11 12 12 11 11 11 11 11 11 11 11 11 11 11 11 11 10 10 10 10 9 8 8 8 8 7 7 7 7 7 7 7
8 9 9 9 10 10 11 11 11 11 11 11 11 10 11 11 11 11 11 11 11 12 11 11 10 10 10 9 8 8 8 8 7 7 7 7 7 7
8 8 8 9 9 10 10 11 11 11 11 10 10 10 11 11 11 11 11 11 11 11 11 11 11 11 10 10 9 9 8 8 8 7 7 7 7 7
8 8 8 8 9 9 10 10 11 11 11 11 11 11 11 11 11 11 11 11 11 11 11 11 11 11 11 10 10 9 9 8 8 8 7 7 7 7
8 8 8 8 8 9 9 10 10 10 11 11 11 10 11 11 11 11 11 11 11 11 11 11 11 11 11 10 10 9 9 8 8 8 8 8 7 7
7 7 7 8 8 9 9 10 10 10 10 10 10 10 10 10 10 10 10 10 11 11 11 11 10 10 10 10 10 9 9 8 8 8 8 8 8 8
7 7 7 7 8 8 9 10 10 10 10 10 10 10 10 10 10 10 10 10 10 10 10 10 10 10 10 9 9 9 9 9 8 8 8 8 8 8
7 7 7 8 8 9 9 10 10 10 10 10 10 10 10 10 9 9 9 10 10 10 9 9 10 10 10 10 10 9 9 9 9 9 9 8 8 8
6 7 7 8 8 9 9 10 10 10 10 10 10 10 10 10 9 9 9 9 9 9 9 9 9 10 10 10 10 10 9 9 9 9 9 9 9 8
7 7 7 8 9 9 10 10 10 10 10 10 10 10 10 10 10 10 10 10 10 10 10 10 9 10 10 10 10 10 10 9 9 9 9 9 9 9
7 7 8 8 9 9 10 10 10 10 10 10 10 10 10 10 10 10 10 10 10 10 10 10 10 10 10 10 10 10 10 10 10 10 10 9 9 9
Wind_Speed
7 7 5 5 5 5 5 5 4 3 3 3 0 1 3 5 7 8 9 13 16 17 17 17 16 15 14 14 13 13 12 12 11 10 8 4 1 7
6 7 6 5 5 5 5 5 5 5 4 3 2 2 4 6 9 10 12 16 17 18 18 17 17 16 16 15 15 15 15 15 15 15 15 15 13 10
7 7 8 6 5 4 4 4 5 5 6 3 2 3 5 9 8 10 11 11 13 17 18 18 18 17 17 17 16 16 16 16 16 17 17 18 19 19
8 8 8 6 6 5 4 5 5 5 5 5 3 4 5 11 10 10 8 10 12 16 18 18 18 18 18 17 17 17 17 17 18 18 19 19 20 21
8 9 9 8 7 5 5 5 5 5 5 5 4 4 5 10 11 10 11 9 11 15 17 17 18 18 18 18 18 19 19 20 20 20 20 21 22 22
8 9 9 9 9 7 6 6 5 5 6 7 7 8 8 9 10 11 10 8 8 10 12 14 17 18 18 19 19 20 21 21 22 22 22 23 23 23
7 8 9 11 11 9 7 6 6 6 7 8 9 8 9 11 10 8 11 10 8 6 9 7 8 9 11 16 18 19 20 21 22 22 22 23 23 23
8 8 8 10 11 11 10 10 10 9 10 9 8 12 11 11 10 12 13 11 6 4 6 6 5 7 5 9 14 17 18 19 20 20 21 21 21 21
8 7 8 8 10 6 6 5 7 11 12 10 12 12 12 14 14 13 11 7 7 8 7 6 4 5 4 8 12 15 16 17 17 17 18 19 19 19
7 8 8 8 9 8 6 4 3 4 8 8 10 10 13 12 11 12 11 9 9 7 5 5 3 3 3 4 8 11 13 13 14 14 15 15 16 16
7 7 7 9 12 13 9 7 7 6 9 13 14 15 17 16 14 12 12 13 11 6 3 4 4 3 2 1 2 6 8 9 10 11 12 13 13 13
5 5 7 10 14 15 10 10 10 9 11 15 15 16 14 14 13 10 11 13 11 6 4 4 5 4 3 1 1 3 4 4 5 6 8 10 11 8
4 4 4 9 14 15 12 9 12 12 11 12 12 10 9 8 7 7 8 11 10 5 7 6 5 4 4 4 3 3 3 2 2 1 3 6 8 7
4 3 3 8 12 14 11 13 16 14 10 10 10 9 8 7 6 7 8 7 7 8 12 9 6 5 5 4 3 3 3 3 3 2 3 4 5 6
3 2 2 7 9 10 13 18 15 10 10 10 10 7 6 7 7 6 7 8 7 7 13 9 9 7 5 5 5 4 3 3 3 3 2 3 4 4
4 2 3 7 6 7 12 13 9 10 11 10 8 6 5 6 7 7 7 8 7 4 4 7 11 11 5 5 6 5 4 5 3 3 3 2 3 6
6 3 3 4 5 6 8 7 7 9 9 7 9 8 7 6 5 5 5 5 5 5 4 4 5 7 7 7 6 5 4 3 3 3 3 2 1 4
8 4 5 6 6 8 10 7 6 8 9 9 10 9 8 7 5 4 4 6 7 6 5 5 6 6 5 6 3 6 4 4 3 3 3 3 2 3
6 6 7 7 6 7 9 8 6 8 9 10 10 9 8 7 6 6 5 6 6 5 4 4 6 6 7 4 2 2 6 4 4 3 3 4 4 5
5 6 6 7 6 6 7 7 8 9 9 9 9 9 8 7 7 7 6 6 5 4 4 3 4 6 7 7 5 3 6 6 5 4 3 2 2 3
5 5 5 5 5 6 7 8 9 9 10 9 8 8 7 7 7 7 7 9 6 5 5 5 5 6 5 5 4 2 3 9 9 6 5 3 2 2
4 4 4 4 5 6 8 8 9 9 9 8 7 8 7 8 8 8 8 8 6 6 6 4 3 4 3 4 5 5 4 4 7 11 10 10 6 6
4 3 3 3 5 6 8 9 10 9 8 7 8 7 7 7 7 8 8 8 7 6 5 5 4 3 3 4 5 4 5 4 3 4 7 18 22 21
Wind_Direction
234 236 235 239 232 227 219 206 214 248 275 262 209 98 101 99 111 111 114 118 114 113 112 110 109 106 101 96 90 85 80 76 71 66 59 50 275 239
231 235 238 239 238 233 227 217 208 210 231 240 197 147 132 122 117 112 113 112 110 111 110 110 108 104 101 96 91 86 81 78 75 72 69 66 65 65
233 231 236 234 235 235 231 224 216 206 225 225 177 145 134 131 122 114 113 108 109 109 111 110 107 104 99 95 91 87 84 81 78 75 72 70 68 68
230 228 234 233 229 230 228 230 225 210 206 202 171 152 139 140 131 123 117 111 108 108 108 107 105 102 97 93 90 87 85 82 80 78 76 75 74 73
228 222 226 220 227 227 230 235 233 221 202 185 169 150 139 140 132 121 114 109 106 107 102 101 102 100 97 95 93 91 89 87 84 82 80 79 79 78
238 226 219 212 218 221 230 234 229 218 196 182 165 154 146 142 135 132 123 115 111 106 100 101 100 97 98 99 99 97 95 92 90 87 85 83 81 80
257 237 223 215 212 212 221 226 214 207 190 178 166 155 152 152 146 140 132 119 100 109 110 99 94 89 91 99 102 103 100 98 96 93 91 88 85 83
260 246 228 212 210 214 225 226 213 200 188 176 168 163 159 152 142 144 140 135 121 135 114 101 93 91 82 98 111 110 108 105 103 99 96 92 89 87
256 242 229 207 191 197 211 215 212 203 189 174 166 162 158 155 149 148 149 137 130 150 125 104 89 88 85 108 120 119 118 116 113 110 106 100 96 93
257 240 224 198 190 183 177 159 139 153 170 164 156 150 148 147 144 144 137 115 109 127 115 111 107 94 87 96 125 127 126 125 125 124 121 116 108 102
261 246 222 201 191 177 162 147 128 113 110 119 122 124 127 129 136 136 135 136 139 145 126 111 126 104 90 94 134 137 131 130 131 133 136 138 127 109
259 246 225 207 188 175 164 155 145 136 130 121 117 118 125 131 137 145 148 149 147 146 162 122 141 132 121 159 171 162 145 134 131 133 141 149 145 121
242 240 222 203 190 179 166 159 151 141 132 127 123 121 121 128 140 149 153 156 155 152 160 136 146 141 133 150 182 192 184 181 171 180 175 169 167 154
222 229 213 190 189 180 164 150 143 135 130 128 127 128 131 134 139 145 151 155 162 158 160 150 145 157 135 134 168 177 188 203 193 212 217 187 175 174
198 193 189 182 183 179 163 152 147 140 138 137 137 135 131 130 122 111 107 110 92 121 155 157 149 148 143 147 154 152 163 200 192 185 186 178 176 162
174 144 149 171 179 170 161 158 152 149 147 144 137 128 116 114 122 124 125 120 102 73 67 135 151 148 140 138 141 149 157 172 180 181 168 171 189 188
160 147 145 156 167 164 161 155 143 140 134 130 136 134 128 122 120 117 117 109 116 127 103 63 76 105 123 139 139 145 148 160 174 161 137 127 213 204
156 162 161 161 172 169 161 150 142 145 143 141 143 141 140 137 131 118 113 124 130 132 131 131 118 95 63 30 93 141 144 163 173 158 138 137 209 243
159 160 158 162 170 164 159 150 146 148 146 148 150 149 145 139 135 132 126 126 130 133 137 137 131 125 130 143 296 170 153 159 154 158 171 170 198 229
155 153 152 152 156 157 154 146 142 146 148 150 150 150 146 143 143 144 144 143 140 132 130 137 147 148 157 166 176 207 187 159 162 180 198 204 250 284
145 143 144 144 151 157 152 145 145 149 151 149 151 152 150 146 150 157 160 159 145 141 158 183 197 157 116 102 112 207 236 206 187 176 177 172 223 266
139 136 142 153 159 155 147 142 143 146 148 147 152 154 153 152 154 157 162 163 163 162 171 169 130 121 121 148 176 201 227 240 227 220 207 193 179 201
147 155 166 166 159 152 146 146 147 151 153 151 153 154 152 150 152 156 161 162 159 157 148 149 150 149 160 164 175 195 215 220 214 221 244 238 233 236
Height
1463 1462 1460 1460 1459 1458 1458 1458 1459 1458 1457 1458 1459 1460 1461 1463 1466 1468 1469 1471 1473 1475 1478 1480 1483 1485 1487 1489 1490 1491 1492 1493 1493 1494 1495 1497 1498 1500
1458 1457 1456 1455 1455 1454 1453 1453 1454 1454 1454 1455 1456 1457 1459 1460 1462 1464 1467 1469 1471 1474 1476 1479 1481 1483 1485 1486 1488 1489 1489 1490 1490 1491 1492 1493 1494 1495
1453 1452 1451 1451 1450 1449 1449 1449 1449 1449 1449 1451 1453 1454 1456 1458 1460 1462 1465 1467 1470 1473 1475 1478 1480 1482 1484 1485 1486 1488 1488 1489 1489 1490 1490 1491 1491 1492
1446 1446 1446 1446 1445 1444 1444 1444 1444 1444 1445 1446 1448 1451 1453 1456 1458 1461 1464 1467 1469 1472 1475 1477 1479 1481 1483 1485 1486 1488 1488 1489 1490 1490 1490 1491 1491 1491
1439 1440 1440 1441 1439 1439 1439 1438 1438 1439 1439 1441 1444 1447 1450 1453 1457 1460 1463 1466 1469 1472 1474 1477 1480 1482 1484 1485 1487 1488 1489 1490 1490 1491 1491 1491 1492 1492
1432 1433 1434 1434 1434 1434 1433 1433 1433 1433 1434 1436 1439 1443 1447 1450 1454 1458 1461 1465 1468 1471 1475 1478 1480 1483 1485 1487 1488 1490 1490 1491 1492 1492 1493 1493 1493 1493
1424 1425 1427 1428 1428 1428 1428 1427 1427 1427 1429 1431 1434 1438 1443 1447 1451 1456 1459 1464 1468 1472 1475 1479 1482 1484 1486 1489 1490 1492 1492 1493 1493 1494 1494 1494 1494 1495
1417 1418 1420 1421 1422 1422 1422 1422 1422 1422 1423 1426 1429 1433 1438 1443 1448 1453 1457 1461 1467 1473 1476 1480 1484 1486 1489 1490 1492 1493 1494 1494 1495 1495 1495 1496 1496 1496
1411 1411 1412 1414 1415 1416 1417 1417 1417 1417 1419 1421 1425 1429 1434 1439 1444 1451 1456 1460 1464 1471 1476 1480 1485 1488 1490 1492 1493 1494 1495 1496 1496 1496 1497 1497 1497 1498
1404 1405 1406 1407 1409 1411 1412 1412 1412 1413 1415 1419 1423 1427 1432 1438 1444 1449 1455 1462 1468 1473 1478 1480 1485 1488 1491 1493 1495 1496 1496 1497 1497 1498 1498 1499 1499 1499
1398 1398 1399 1402 1404 1406 1408 1409 1409 1411 1414 1417 1422 1427 1432 1438 1444 1450 1456 1461 1467 1473 1479 1481 1485 1489 1492 1494 1496 1497 1498 1499 1499 1500 1500 1501 1501 1501
1393 1393 1394 1396 1399 1402 1404 1406 1407 1409 1412 1416 1421 1427 1433 1439 1446 1451 1456 1460 1465 1472 1478 1481 1485 1488 1492 1495 1497 1498 1499 1500 1500 1501 1502 1502 1502 1502
1388 1388 1388 1391 1394 1398 1402 1404 1406 1409 1412 1416 1422 1428 1434 1440 1446 1452 1457 1462 1466 1470 1475 1480 1484 1487 1490 1493 1496 1498 1499 1500 1501 1502 1502 1503 1503 1503
1383 1383 1384 1386 1390 1395 1400 1403 1407 1410 1413 1418 1423 1429 1434 1441 1447 1452 1458 1463 1467 1471 1475 1479 1482 1485 1488 1491 1494 1497 1499 1500 1501 1501 1502 1503 1503 1503
1378 1379 1379 1381 1386 1392 1397 1402 1406 1410 1414 1419 1424 1430 1436 1441 1447 1452 1458 1462 1467 1472 1475 1478 1481 1484 1487 1489 1492 1495 1497 1499 1500 1500 1501 1502 1503 1503
1374 1375 1376 1378 1382 1388 1395 1401 1406 1410 1415 1420 1425 1431 1437 1442 1447 1452 1456 1461 1465 1470 1474 1478 1481 1484 1486 1489 1491 1493 1496 1497 1498 1499 1500 1501 1502 1502
1369 1371 1372 1375 1379 1385 1393 1399 1405 1411 1416 1421 1426 1431 1437 1442 1447 1451 1455 1459 1463 1467 1472 1476 1480 1483 1486 1488 1490 1492 1494 1496 1497 1498 1499 1500 1501 1501
1366 1367 1369 1373 1377 1383 1390 1397 1404 1410 1416 1422 1427 1432 1437 1441 1446 1450 1454 1459 1462 1466 1470 1474 1478 1481 1485 1488 1491 1491 1493 1495 1496 1497 1498 1499 1499 1500
1362 1365 1368 1371 1377 1382 1389 1397 1404 1410 1416 1422 1427 1432 1437 1441 1445 1449 1453 1457 1462 1465 1469 1472 1476 1479 1482 1486 1489 1492 1493 1494 1495 1496 1497 1497 1498 1498
1360 1363 1367 1371 1377 1383 1391 1398 1405 1411 1416 1422 1427 1432 1436 1440 1444 1448 1452 1456 1460 1464 1467 1471 1475 1478 1482 1485 1487 1490 1492 1493 1494 1495 1496 1496 1496 1497
1360 1364 1368 1373 1380 1386 1393 1399 1405 1411 1416 1422 1427 1431 1436 1440 1444 1449 1453 1457 1460 1463 1467 1471 1475 1479 1482 1484 1486 1488 1490 1492 1493 1493 1494 1494 1494 1494
1363 1367 1372 1377 1383 1389 1395 1401 1407 1412 1417 1422 1427 1431 1436 1440 1444 1449 1453 1456 1460 1464 1467 1471 1474 1477 1479 1482 1484 1486 1488 1490 1491 1491 1492 1492 1491 1490
1367 1372 1376 1381 1386 1391 1397 1402 1408 1413 1418 1422 1427 1432 1436 1440 1445 1449 1453 1456 1460 1463 1467 1470 1473 1475 1477 1480 1482 1484 1486 1487 1488 1488 1488 1488 1488 1487